Weather History for West Yellowstone, MT

Change the Weather History Date:

Friday, May 24, 2013

  Actual Average Record
Temperature  
Mean Temperature 44 °F -  
Max Temperature 55 °F 61 °F 55 °F (2013)
Min Temperature 32 °F 31 °F 32 °F (2012)
Degree Days  
Heating Degree Days 22    
Moisture  
Dew Point 39 °F    
Average Humidity 85    
Maximum Humidity 88    
Minimum Humidity 81    
Precipitation  
Precipitation 0.02 in - - ()
Sea Level Pressure  
Sea Level Pressure 30.03 in    
Wind  
Wind Speed 11 mph (SSW)    
Max Wind Speed 20 mph    
Max Gust Speed 36 mph    
Visibility 10 miles    
Events Rain    
Averages and records for this station are not official NWS values.
T = Trace of Precipitation, MM = Missing Value Source: NWS Daily Summary

Daily Weather History Graph

Daily Weather History Graph

Search for Another Location

Airport:

Trip Planner

Search our weather history database for the weather conditions in past years. The results will help you decide how hot, cold, wet, or windy it might be!

Date:

Astronomy

May. 24, 2013 Rise Set
Actual Time 5:47 AM MDT 8:55 PM MDT
Civil Twilight 5:12 AM MDT 9:31 PM MDT
Nautical Twilight 4:26 AM MDT 10:16 PM MDT
Astronomical Twilight 3:32 AM MDT 11:11 PM MDT
Moon 8:40 PM MDT (5/24) 5:24 AM MDT (5/24)
Length of Visible Light 16h 18m
Length of Day
15h 08m
Full, 100% of the Moon is Illuminated
May 24
Full
May 24
Full
May 31
Last Quarter
Jun 8
New
Jun 16
First Quarter

Hourly Weather History & Observations

Time (MDT) Temp. Windchill Dew Point Humidity Pressure Visibility Wind Dir Wind Speed Gust Speed Precip Events Conditions
12:10 AM 37.4 °F 28.5 °F 33.8 °F 87% 29.96 in 5.0 mi SW 15.0 mph - 0.01 in Rain Light Rain
12:30 AM 35.6 °F 28.0 °F 32.0 °F 87% 29.98 in 3.0 mi SW 10.4 mph - 0.04 in   Mostly Cloudy
12:50 AM 33.8 °F 25.8 °F 30.2 °F 87% 29.99 in 5.0 mi SW 10.4 mph - 0.06 in Rain Light Rain
1:10 AM 33.8 °F 27.0 °F 30.2 °F 87% 30.00 in 7.0 mi SSW 8.1 mph - 0.01 in Rain Light Rain
1:30 AM 35.6 °F 30.7 °F 32.0 °F 87% 29.99 in 6.0 mi South 5.8 mph - 0.02 in Rain Light Rain
1:50 AM 35.6 °F 32.8 °F 32.0 °F 87% 29.98 in 10.0 mi ESE 3.5 mph - 0.02 in   Mostly Cloudy
2:10 AM 35.6 °F 29.2 °F 32.0 °F 87% 29.98 in 10.0 mi ENE 8.1 mph - N/A   Overcast
2:30 AM 35.6 °F 29.9 °F 32.0 °F 87% 29.97 in 10.0 mi ESE 6.9 mph - N/A   Overcast
2:50 AM 35.6 °F 31.7 °F 32.0 °F 87% 29.97 in 10.0 mi SE 4.6 mph - N/A   Overcast
3:10 AM 35.6 °F 32.8 °F 32.0 °F 87% 29.97 in 10.0 mi SSE 3.5 mph - N/A   Overcast
3:30 AM 35.6 °F 31.7 °F 32.0 °F 87% 29.98 in 10.0 mi SW 4.6 mph - N/A   Mostly Cloudy
3:50 AM 35.6 °F 28.6 °F 32.0 °F 87% 29.98 in 10.0 mi South 9.2 mph - N/A   Overcast
4:10 AM 33.8 °F 26.4 °F 30.2 °F 87% 29.99 in 10.0 mi SSW 9.2 mph - N/A   Scattered Clouds
4:30 AM 32.0 °F 25.6 °F 28.4 °F 87% 30.00 in 10.0 mi SSW 6.9 mph - N/A   Clear
4:50 AM 32.0 °F 23.6 °F 28.4 °F 87% 30.00 in 10.0 mi SSW 10.4 mph - N/A   Clear
5:10 AM 33.8 °F 22.5 °F 30.2 °F 87% 30.00 in 10.0 mi South 19.6 mph 24.2 mph N/A   Clear
5:30 AM 32.0 °F 27.5 °F 28.4 °F 87% 30.02 in 10.0 mi NW 4.6 mph - N/A   Clear
5:50 AM 32.0 °F - 28.4 °F 87% 30.03 in 10.0 mi Calm Calm - N/A   Clear
6:10 AM 32.0 °F 24.8 °F 28.4 °F 87% 30.04 in 10.0 mi SE 8.1 mph - N/A   Clear
6:30 AM 32.0 °F 25.6 °F 28.4 °F 87% 30.04 in 10.0 mi SSE 6.9 mph - N/A   Clear
6:50 AM 33.8 °F 26.4 °F 30.2 °F 87% 30.05 in 10.0 mi South 9.2 mph - N/A   Clear
7:10 AM 35.6 °F 29.9 °F 32.0 °F 87% 30.06 in 10.0 mi South 6.9 mph 16.1 mph N/A   Clear
7:30 AM 35.6 °F 28.6 °F 32.0 °F 87% 30.06 in 10.0 mi South 9.2 mph - N/A   Clear
7:50 AM 35.6 °F 28.0 °F 32.0 °F 87% 30.06 in 10.0 mi SSW 10.4 mph - N/A   Clear
8:10 AM 37.4 °F 28.9 °F 32.0 °F 81% 30.06 in 10.0 mi SSW 13.8 mph - N/A   Clear
8:30 AM 37.4 °F 28.9 °F 32.0 °F 81% 30.07 in 10.0 mi SW 13.8 mph 21.9 mph N/A   Clear
8:50 AM 37.4 °F 28.2 °F 33.8 °F 87% 30.07 in 10.0 mi SSW 16.1 mph 21.9 mph N/A   Clear
9:10 AM 39.2 °F 31.2 °F 33.8 °F 81% 30.08 in 10.0 mi SW 13.8 mph 19.6 mph N/A   Clear
9:30 AM 39.2 °F 31.6 °F 35.6 °F 87% 30.08 in 10.0 mi SSW 12.7 mph 18.4 mph N/A   Clear
9:50 AM 39.2 °F 30.5 °F 35.6 °F 87% 30.08 in 10.0 mi SSW 16.1 mph 19.6 mph N/A   Clear
10:10 AM 41.0 °F 34.3 °F 37.4 °F 87% 30.08 in 10.0 mi South 11.5 mph 24.2 mph N/A   Clear
10:30 AM 42.8 °F 37.5 °F 37.4 °F 81% 30.07 in 10.0 mi South 9.2 mph - N/A   Clear
10:50 AM 44.6 °F 38.1 °F 39.2 °F 81% 30.07 in 10.0 mi SSW 13.8 mph - N/A   Scattered Clouds
11:10 AM 44.6 °F 37.8 °F 39.2 °F 81% 30.07 in 10.0 mi SSW 15.0 mph 20.7 mph N/A   Mostly Cloudy
11:30 AM 44.6 °F 37.8 °F 41.0 °F 87% 30.07 in 10.0 mi SSW 15.0 mph 24.2 mph N/A   Mostly Cloudy
11:50 AM 46.4 °F 40.1 °F 41.0 °F 81% 30.07 in 10.0 mi SW 15.0 mph 27.6 mph N/A   Scattered Clouds
12:10 PM 48.2 °F - 42.8 °F 82% 30.07 in 10.0 mi SSW 16.1 mph 24.2 mph N/A   Partly Cloudy
12:30 PM 48.2 °F - 44.6 °F 87% 30.06 in 10.0 mi SSW 13.8 mph 26.5 mph N/A   Partly Cloudy
12:50 PM 50.0 °F - 44.6 °F 82% 30.07 in 10.0 mi SSW 16.1 mph 28.8 mph N/A   Partly Cloudy
1:10 PM 50.0 °F - 44.6 °F 82% 30.07 in 10.0 mi SW 15.0 mph 29.9 mph N/A   Clear
1:30 PM 50.0 °F - 46.4 °F 87% 30.06 in 10.0 mi SW 15.0 mph 20.7 mph N/A   Partly Cloudy
1:50 PM 50.0 °F - 46.4 °F 87% 30.06 in 10.0 mi SSW 13.8 mph 28.8 mph N/A   Partly Cloudy
2:10 PM 50.0 °F - 46.4 °F 87% 30.05 in 10.0 mi SW 19.6 mph 28.8 mph N/A   Mostly Cloudy
2:30 PM 51.8 °F - 46.4 °F 82% 30.05 in 10.0 mi South 18.4 mph 26.5 mph N/A   Scattered Clouds
2:50 PM 53.6 °F - 48.2 °F 82% 30.04 in 10.0 mi SSW 15.0 mph 29.9 mph N/A   Partly Cloudy
3:10 PM 53.6 °F - 48.2 °F 82% 30.04 in 10.0 mi SW 18.4 mph 35.7 mph N/A   Clear
3:30 PM 53.6 °F - 48.2 °F 82% 30.04 in 10.0 mi SW 16.1 mph 32.2 mph N/A   Clear
3:50 PM 55.4 °F - 50.0 °F 82% 30.03 in 10.0 mi South 19.6 mph 33.4 mph N/A   Clear
4:10 PM 55.4 °F - 50.0 °F 82% 30.03 in 10.0 mi SW 18.4 mph 27.6 mph N/A   Clear
4:30 PM 55.4 °F - 50.0 °F 82% 30.03 in 10.0 mi SW 13.8 mph 28.8 mph N/A   Clear
4:50 PM 55.4 °F - 50.0 °F 82% 30.03 in 10.0 mi SW 19.6 mph 35.7 mph N/A   Clear
5:10 PM 53.6 °F - 48.2 °F 82% 30.02 in 10.0 mi SW 17.3 mph 28.8 mph N/A   Clear
5:30 PM 53.6 °F - 48.2 °F 82% 30.03 in 10.0 mi SW 17.3 mph 32.2 mph N/A   Clear
5:50 PM 53.6 °F - 48.2 °F 82% 30.03 in 10.0 mi SW 16.1 mph 28.8 mph N/A   Clear
6:10 PM 53.6 °F - 48.2 °F 82% 30.03 in 10.0 mi SW 15.0 mph 27.6 mph N/A   Clear
6:30 PM 51.8 °F - 48.2 °F 88% 30.02 in 10.0 mi SW 15.0 mph 26.5 mph N/A   Clear
6:50 PM 51.8 °F - 46.4 °F 82% 30.02 in 10.0 mi SW 13.8 mph 23.0 mph N/A   Clear
7:10 PM 50.0 °F - 46.4 °F 87% 30.03 in 10.0 mi SSW 16.1 mph 25.3 mph N/A   Clear
7:30 PM 50.0 °F - 46.4 °F 87% 30.03 in 10.0 mi SW 10.4 mph 21.9 mph N/A   Clear
7:50 PM 50.0 °F - 44.6 °F 82% 30.03 in 10.0 mi Calm Calm - N/A   Clear
8:10 PM 48.2 °F - 44.6 °F 87% 30.04 in 10.0 mi East 5.8 mph - N/A   Clear
8:30 PM 48.2 °F - 44.6 °F 87% 30.04 in 10.0 mi Calm Calm - N/A   Clear
8:50 PM 46.4 °F 41.9 °F 41.0 °F 81% 30.04 in 10.0 mi South 9.2 mph - N/A   Clear
9:10 PM 46.4 °F - 42.8 °F 87% 30.04 in 10.0 mi Calm Calm - N/A   Clear
9:30 PM 44.6 °F - 39.2 °F 81% 30.04 in 10.0 mi Calm Calm - N/A   Clear
9:50 PM 41.0 °F 38.0 °F 37.4 °F 87% 30.05 in 10.0 mi ESE 4.6 mph - N/A   Clear
10:10 PM 42.8 °F 40.1 °F 37.4 °F 81% 30.05 in 10.0 mi NNW 4.6 mph - N/A   Clear
10:30 PM 41.0 °F 37.1 °F 37.4 °F 87% 30.05 in 10.0 mi ENE 5.8 mph - N/A   Clear
10:50 PM 41.0 °F 36.4 °F 37.4 °F 87% 30.05 in 10.0 mi East 6.9 mph - N/A   Clear
11:10 PM 41.0 °F - 35.6 °F 81% 30.05 in 10.0 mi Calm Calm - N/A   Clear
11:30 PM 39.2 °F - 35.6 °F 87% 30.05 in 10.0 mi Calm Calm - N/A   Clear
11:50 PM 39.2 °F 35.9 °F 35.6 °F 87% 30.04 in 10.0 mi SSE 4.6 mph - N/A   Clear